Location: Bonningues
(50.7927°N, 2.0150°E)
Time: 00:09:15
(UTC+00:00)

SPOT 1/Viking Rocket - Pass Details

Date: 08 August 2020
Orbit: 776 x 795 km, 98.5° (Epoch: 23 September)

Event Time Altitude Azimuth Distance (km) Brightness Sun altitude
Exits shadow 20:39:53 12° 151° (SSE) 2,198 5.3 -10.6°
Maximum altitude 20:44:38 66° 71° (ENE) 867 3.7 -11.2°
Drops below altitude 10° 20:49:50 10° 350° (N) 2,377 6.9 -11.8°
Sets 20:52:11 0° 348° (NNW) 3,312 7.8 -12.1°
